Back to catalog

ONEWEB-0232

AliveCommunicationsPO
NORAD 48781·PAYLOAD·🇬🇧 United Kingdom

Launched May 28, 2021 from Vostochny Cosmodrome

Loading…

Next Passes (next 24 hours)

TLE

FreshSource: CelesTrak SupGP

Epoch: Sep 14, 2026, 19:48 UTC

1 48781C 21045Q   26257.82517778  .00002689  00000+0  71512-2 0  2576
2 48781  87.8986 241.3185 0001968  85.7672 311.5916 13.15541423    15

Track ONEWEB-0232 in real time with AllMySat

Download on the App Store